Probability
3 1 0 0 0 0 0 0 0 0 0 0 0 0 0 0 0 0 0 0 0 0 0 0 0 0 0 0 0 0 0 0 0 0 0 0 0 0
2 1 0 0 0 0 0 0 0 0 0 0 0 0 0 0 0 0 0 0 0 0 0 0 0 0 0 0 0 0 0 0 0 0 0 0 0 0
1 1 0 0 0 0 0 0 0 0 0 0 0 0 0 0 0 0 0 0 0 0 0 0 0 0 0 0 0 0 0 0 0 0 0 0 0 0
0 0 0 0 0 0 0 0 0 0 0 0 0 0 0 0 0 0 0 0 0 0 0 0 0 0 0 0 0 0 0 0 0 0 0 0 0 0
0 0 0 0 0 0 0 0 0 0 0 0 0 0 0 0 0 0 0 0 0 0 0 0 0 0 0 0 0 0 0 0 0 0 0 0 0 0
0 0 0 0 0 0 0 0 0 0 0 0 0 0 0 0 0 0 0 0 0 0 0 0 0 0 0 0 0 0 0 0 0 0 0 0 0 0
0 0 0 0 0 0 0 0 0 0 0 0 0 0 0 0 1 1 1 0 0 0 0 0 0 0 0 0 0 0 0 0 0 0 0 0 0 0
0 0 0 0 0 0 0 0 0 0 0 0 0 0 0 0 1 1 1 0 0 0 0 0 0 0 0 0 0 0 0 0 0 0 0 0 0 0
0 0 0 0 0 0 0 0 0 0 0 0 0 0 0 0 0 0 0 0 0 0 0 0 0 0 0 0 0 0 0 0 0 0 0 0 0 0
0 0 0 0 0 0 0 0 0 0 0 0 0 0 0 0 0 0 0 0 0 0 0 0 0 0 0 0 0 0 0 0 0 0 0 0 0 0
0 0 0 0 0 0 0 0 0 0 0 0 0 0 0 0 0 0 0 0 0 0 0 0 0 0 0 0 0 0 0 0 0 0 0 0 0 0
0 0 0 0 0 0 0 0 0 0 0 0 0 0 0 0 0 0 0 0 0 0 0 0 0 0 0 0 0 0 0 0 0 0 0 0 0 0
0 0 0 0 0 0 0 0 0 0 0 0 0 0 0 0 0 0 0 0 0 0 0 0 0 0 0 0 0 0 0 0 0 0 0 0 0 0
0 0 0 0 0 0 0 0 0 0 0 0 0 0 0 0 0 0 0 0 0 0 0 0 0 0 0 0 0 0 0 0 0 0 0 0 0 0
0 0 0 0 0 0 0 0 0 0 0 0 0 0 0 0 0 0 0 0 0 0 0 0 0 0 0 0 0 0 0 0 0 0 0 0 0 0
0 0 0 0 0 0 0 0 0 0 0 0 0 0 0 0 0 0 0 0 0 0 0 0 0 0 0 0 0 0 0 0 0 0 0 0 0 0
0 0 0 0 0 0 0 0 0 0 0 0 0 0 0 0 0 0 0 0 0 0 0 0 0 0 0 0 0 0 0 0 0 0 0 0 0 0
0 0 0 0 0 0 0 0 0 0 0 0 0 0 0 0 0 0 0 0 0 0 0 0 0 0 0 0 0 0 0 0 0 0 0 0 0 0
0 0 0 0 0 0 0 0 0 0 0 0 0 0 0 0 0 0 0 0 0 0 0 0 0 0 0 0 0 0 0 0 0 0 0 0 0 0
0 0 0 0 0 0 0 0 0 0 0 0 0 0 0 0 0 0 0 0 0 0 0 0 0 0 0 0 0 0 0 0 0 0 0 0 0 0
0 0 0 0 0 0 0 0 0 0 0 0 0 0 0 0 0 0 0 0 0 0 0 0 0 0 0 0 0 0 0 0 0 0 0 0 0 0
0 0 0 0 0 0 0 0 0 0 0 0 0 0 0 0 0 0 0 0 0 0 0 0 0 0 0 0 0 0 0 0 0 0 0 0 0 0
0 0 0 0 0 0 0 0 0 0 0 0 0 0 0 0 0 0 0 0 0 0 0 0 0 0 0 0 0 0 0 0 0 0 0 0 0 0
Wind_Speed
3 4 3 3 3 3 3 3 4 3 3 3 2 2 3 3 4 4 3 6 6 6 6 6 6 5 5 5 5 4 4 4 3 3 3 3 3 2
2 3 3 2 3 3 3 3 3 3 3 2 2 1 2 3 5 4 4 6 6 6 6 7 7 6 6 5 5 5 5 4 4 4 3 2 2 2
1 2 3 2 3 3 3 3 3 3 3 1 1 1 2 3 3 3 3 4 4 6 6 7 7 7 6 6 6 6 5 5 4 4 4 3 2 2
2 2 2 3 3 3 3 4 3 3 3 3 1 1 2 3 3 4 3 4 4 6 7 7 7 7 7 7 7 6 6 5 5 4 4 3 3 3
2 3 3 3 3 3 4 4 3 3 3 3 2 1 2 2 3 4 5 4 4 6 7 7 8 8 8 8 7 7 6 6 6 5 4 4 4 4
1 1 2 3 3 3 4 4 4 4 4 4 3 2 2 3 4 4 4 3 4 5 6 7 9 10 9 9 8 7 7 7 7 6 6 5 5 5
2 1 1 1 2 3 3 4 5 4 4 4 4 3 3 4 4 3 5 5 4 3 5 5 5 5 5 7 7 8 8 8 7 7 6 6 6 6
2 2 1 1 1 2 3 4 6 6 6 4 3 4 4 4 4 5 5 5 3 3 4 4 4 5 4 4 6 9 9 9 8 7 7 7 7 6
2 2 2 3 3 3 4 4 3 4 5 5 5 4 5 5 6 6 5 4 4 5 4 4 3 4 3 4 9 9 9 9 9 8 8 8 7 7
4 3 3 3 2 3 4 4 4 3 2 3 4 4 4 5 6 6 6 6 6 3 3 4 3 3 3 3 7 8 8 8 8 8 8 8 8 7
5 4 4 3 5 6 5 5 5 4 5 7 7 7 9 9 9 7 7 7 5 2 2 4 3 3 2 2 4 7 7 7 7 7 8 8 7 7
5 5 7 6 6 6 4 4 5 4 4 6 7 7 6 7 8 6 7 7 5 3 2 3 4 3 3 1 1 2 3 5 7 7 7 7 6 4
4 4 4 7 8 8 6 4 5 5 5 6 5 5 5 4 4 4 3 4 4 3 4 4 4 3 3 3 1 1 2 2 2 3 5 6 6 4
3 3 3 7 8 8 6 7 8 7 4 5 5 4 4 4 4 5 6 6 4 4 5 4 4 4 4 4 3 2 1 1 2 2 2 4 5 5
3 5 7 8 8 6 8 9 6 4 4 5 5 3 3 3 4 4 5 6 8 7 4 2 4 4 3 4 4 3 2 1 1 2 2 2 1 1
3 5 8 9 6 6 6 5 4 3 4 4 3 3 3 3 3 3 3 3 4 4 6 6 4 4 3 3 4 3 3 3 2 2 2 1 0 1
2 3 3 3 3 3 3 3 3 3 4 3 3 3 3 3 3 2 2 3 3 3 2 4 5 6 5 4 3 3 3 2 2 2 2 1 1 1
3 2 2 2 2 2 2 2 2 2 2 2 3 3 3 3 3 2 3 3 4 3 2 2 2 3 3 4 3 4 2 2 2 2 2 1 2 2
2 1 1 1 0 0 1 1 1 1 1 2 2 3 3 3 3 3 3 3 3 3 2 1 1 3 2 1 1 1 3 3 3 2 2 2 3 2
1 1 1 1 1 1 1 1 1 1 1 1 2 2 2 3 3 3 3 3 3 3 2 1 1 2 3 3 2 1 1 3 3 3 2 1 2 3
2 2 2 2 2 2 2 2 2 2 2 2 2 2 3 3 3 3 3 4 3 3 3 1 1 2 3 3 2 0 1 2 3 3 3 2 1 1
3 3 3 3 3 3 3 3 2 2 2 2 2 3 3 3 3 4 4 4 3 3 3 2 2 2 2 2 2 2 1 1 2 4 6 6 4 3
5 5 4 4 4 3 3 4 4 3 3 3 3 3 3 3 3 3 4 4 3 3 3 3 2 1 1 2 2 2 2 1 1 1 3 7 11 11
Wind_Direction
198 191 191 191 184 185 178 173 166 178 212 213 200 197 189 175 177 176 174 181 179 181 177 172 171 170 172 179 179 172 168 164 167 173 182 183 190 194
189 182 186 189 184 181 184 181 182 174 191 197 199 178 171 176 170 164 161 158 158 161 161 160 156 153 158 163 156 148 145 148 151 154 161 168 168 183
192 183 190 185 186 184 180 178 185 171 174 176 164 138 147 154 148 144 139 135 136 143 144 145 144 142 142 141 139 138 136 136 138 143 144 147 159 166
192 182 194 191 192 188 184 185 184 173 161 166 161 150 145 149 142 136 130 131 126 133 131 128 130 131 132 128 125 125 128 130 126 120 119 128 136 133
187 185 193 187 199 199 188 185 181 177 161 159 158 142 128 132 129 120 116 112 121 122 120 118 121 122 123 120 120 118 123 128 126 121 117 110 106 104
166 192 201 198 202 197 192 189 181 173 162 155 152 147 140 138 138 135 126 109 105 103 97 96 102 102 106 108 110 110 112 117 119 114 107 102 98 96
32 14 255 222 215 198 186 182 177 169 160 160 161 156 158 159 155 142 133 120 97 103 103 91 92 85 84 94 102 105 105 107 107 106 105 103 99 97
21 3 6 44 79 132 153 162 171 169 168 165 168 170 167 155 142 145 141 140 129 125 112 96 89 87 77 80 94 100 102 102 102 104 104 101 101 100
27 26 35 45 60 78 86 98 111 137 160 162 165 171 164 160 151 150 148 133 126 140 121 101 90 87 71 82 93 95 100 103 104 102 101 99 98 97
30 34 48 39 66 89 90 80 71 71 127 151 153 158 151 149 151 143 133 112 96 95 102 108 106 91 73 64 85 92 94 100 103 103 102 97 95 97
26 32 44 52 72 89 96 95 82 65 75 99 110 118 125 130 136 132 134 132 123 111 85 112 124 106 81 59 61 76 83 88 96 103 104 101 97 90
26 26 36 49 65 76 89 100 93 75 81 85 85 86 99 114 123 141 148 144 132 133 140 119 136 135 121 80 56 56 69 76 80 86 98 103 104 99
30 18 21 46 61 67 69 83 96 97 92 95 92 86 81 81 80 83 104 137 138 137 156 135 137 137 128 132 119 76 78 84 78 74 83 96 106 111
33 10 24 54 64 66 71 82 89 90 89 91 90 87 88 84 81 81 81 73 68 108 143 137 135 150 139 138 150 142 107 89 98 101 94 84 84 87
36 39 51 59 62 65 68 73 76 79 87 91 92 84 79 92 96 91 81 78 70 63 65 78 126 137 132 142 146 149 152 142 122 123 114 103 97 89
36 44 54 57 58 61 59 54 53 72 92 95 94 86 83 86 84 90 101 95 83 60 40 45 88 124 121 118 137 149 154 156 154 150 131 116 114 150
46 44 38 39 43 42 47 50 51 65 76 81 97 98 95 92 80 73 93 91 97 103 69 45 58 69 75 112 126 136 140 140 154 152 144 158 251 227
77 64 52 51 55 55 65 53 51 66 76 95 102 107 112 110 99 78 81 99 110 115 112 104 99 82 70 49 58 141 141 145 146 148 149 177 255 248
86 108 132 134 123 112 104 96 91 81 94 109 115 119 118 114 113 112 109 107 111 117 119 117 113 115 120 161 352 71 157 154 150 161 185 198 229 251
163 196 202 196 188 182 176 163 139 114 108 125 130 134 134 130 131 136 138 137 136 132 127 117 138 151 164 176 179 176 157 163 167 180 187 205 257 279
215 215 213 205 202 196 188 178 168 165 163 157 160 161 155 145 149 155 153 152 144 148 160 179 177 136 115 102 101 250 250 213 192 183 172 177 241 289
217 215 215 209 203 199 190 180 176 178 178 178 181 179 171 165 168 170 167 164 169 166 159 142 132 124 124 150 176 198 234 260 247 224 211 194 184 206
216 213 211 207 204 196 190 189 189 191 190 188 187 184 175 174 175 172 173 171 163 160 154 154 153 145 149 164 176 192 209 218 234 258 255 237 233 242